Temp
-7 -6 -6 -7 -7 -8 -7 -7 -6 -7 -8 -7 -7 -7 -7 -6 -6 -5 -5 -5 -5 -5 -6 -6 -6 -6 -6 -6 -7 -7 -7 -7 -7 -7 -7 -7 -7 -7 -6 -6 -6 -6 -6 -6 -6 -6 -6 -6 -6
-6 -6 -6 -7 -8 -8 -6 -7 -7 -7 -7 -7 -7 -6 -6 -6 -6 -5 -5 -6 -6 -6 -6 -6 -6 -7 -7 -7 -7 -7 -7 -7 -7 -7 -7 -7 -6 -6 -6 -6 -6 -6 -6 -7 -7 -7 -7 -7 -7
-7 -7 -7 -7 -8 -8 -8 -8 -8 -8 -5 -5 -6 -6 -6 -6 -5 -5 -5 -7 -7 -7 -7 -7 -7 -7 -7 -7 -7 -7 -7 -7 -7 -7 -7 -7 -7 -7 -7 -7 -7 -7 -7 -7 -7 -7 -7 -7 -7
-7 -7 -7 -8 -8 -8 -8 -8 -8 -8 -7 -6 -7 -6 -6 -6 -6 -6 -6 -7 -8 -8 -8 -8 -8 -8 -8 -8 -7 -7 -7 -7 -7 -7 -7 -7 -7 -7 -7 -7 -7 -7 -7 -7 -7 -7 -7 -7 -7
-7 -7 -7 -8 -8 -8 -8 -8 -7 -6 -6 -9 -8 -7 -7 -7 -7 -7 -7 -8 -8 -8 -8 -8 -8 -8 -8 -8 -8 -8 -8 -7 -7 -7 -7 -7 -7 -8 -8 -8 -8 -7 -7 -7 -7 -7 -7 -7 -7
-7 -7 -7 -7 -9 -9 -8 -8 -8 -7 -8 -8 -8 -8 -7 -7 -7 -7 -7 -8 -7 -7 -8 -8 -9 -9 -8 -8 -8 -8 -8 -8 -8 -8 -8 -8 -8 -8 -8 -8 -8 -8 -8 -8 -7 -7 -7 -7 -7
-8 -8 -7 -8 -9 -9 -9 -8 -8 -8 -8 -7 -8 -7 -7 -7 -7 -7 -7 -7 -8 -7 -8 -8 -8 -8 -9 -9 -9 -8 -8 -7 -7 -8 -8 -8 -8 -8 -8 -8 -8 -7 -7 -7 -7 -7 -7 -7 -7
-9 -8 -7 -7 -8 -8 -8 -8 -8 -8 -7 -6 -7 -7 -6 -7 -7 -7 -6 -6 -7 -7 -7 -7 -7 -7 -8 -8 -8 -8 -8 -8 -8 -8 -8 -8 -8 -8 -8 -8 -8 -8 -8 -8 -8 -7 -7 -7 -7
-7 -7 -8 -8 -8 -9 -9 -8 -8 -8 -7 -7 -7 -6 -8 -8 -7 -7 -7 -6 -6 -7 -7 -7 -7 -8 -8 -8 -8 -8 -8 -8 -8 -8 -8 -8 -8 -8 -8 -8 -8 -8 -8 -8 -8 -8 -8 -8 -8
-8 -8 -8 -8 -9 -9 -9 -9 -8 -8 -7 -6 -7 -7 -8 -8 -7 -7 -6 -7 -7 -7 -6 -6 -7 -7 -7 -7 -8 -8 -8 -8 -8 -9 -9 -9 -8 -9 -9 -8 -8 -8 -8 -8 -8 -8 -8 -8 -8
-8 -8 -9 -10 -11 -9 -9 -9 -8 -8 -8 -6 -8 -9 -8 -8 -7 -6 -6 -6 -6 -7 -6 -6 -6 -7 -7 -8 -8 -8 -8 -8 -8 -8 -8 -8 -8 -8 -8 -8 -8 -8 -8 -8 -8 -8 -8 -8 -8
-8 -8 -8 -9 -10 -10 -9 -8 -8 -8 -8 -7 -7 -8 -9 -8 -8 -7 -7 -6 -7 -7 -7 -7 -7 -8 -8 -8 -8 -8 -8 -8 -8 -8 -8 -8 -8 -8 -8 -9 -9 -9 -9 -9 -9 -9 -9 -9 -8
-8 -8 -8 -8 -9 -9 -10 -9 -9 -8 -8 -7 -7 -8 -8 -8 -8 -8 -7 -7 -7 -8 -8 -8 -8 -8 -8 -8 -8 -8 -8 -8 -8 -8 -9 -9 -9 -9 -9 -9 -8 -8 -8 -9 -9 -8 -8 -9 -9
-8 -9 -8 -8 -7 -9 -9 -10 -10 -8 -8 -7 -7 -8 -8 -8 -8 -8 -7 -7 -8 -8 -8 -8 -8 -8 -8 -8 -8 -8 -8 -8 -8 -8 -8 -8 -9 -9 -9 -9 -9 -9 -9 -9 -9 -8 -8 -8 -8
-7 -9 -7 -8 -7 -8 -9 -9 -8 -9 -8 -8 -7 -8 -8 -8 -8 -8 -7 -8 -8 -8 -8 -8 -8 -8 -8 -8 -9 -8 -9 -9 -9 -9 -9 -9 -9 -9 -9 -9 -10 -10 -9 -9 -9 -9 -9 -9 -9
-7 -7 -7 -8 -8 -8 -8 -8 -9 -9 -9 -8 -7 -8 -8 -8 -8 -8 -8 -8 -8 -8 -8 -8 -8 -8 -9 -9 -9 -9 -9 -9 -9 -10 -10 -10 -10 -10 -9 -9 -9 -9 -9 -9 -9 -9 -9 -9 -9
-7 -8 -8 -8 -7 -9 -8 -9 -9 -10 -9 -8 -7 -7 -8 -8 -8 -7 -8 -8 -8 -8 -8 -8 -8 -8 -8 -9 -9 -9 -9 -10 -10 -10 -10 -10 -10 -10 -10 -10 -10 -10 -10 -10 -10 -10 -10 -10 -9
-8 -9 -9 -10 -9 -10 -10 -8 -9 -10 -9 -8 -7 -7 -8 -8 -8 -7 -8 -8 -8 -8 -8 -8 -8 -9 -9 -10 -9 -9 -10 -10 -10 -10 -10 -10 -11 -11 -10 -10 -10 -10 -10 -10 -10 -10 -10 -10 -10
-8 -10 -10 -10 -10 -10 -10 -10 -8 -9 -9 -9 -8 -8 -8 -8 -8 -8 -8 -8 -8 -9 -9 -9 -9 -9 -10 -10 -10 -10 -10 -11 -11 -11 -11 -11 -11 -11 -11 -11 -11 -10 -10 -11 -11 -11 -10 -10 -11
-9 -9 -10 -10 -10 -10 -10 -10 -11 -9 -9 -10 -10 -9 -9 -9 -9 -9 -8 -8 -9 -9 -9 -9 -10 -10 -10 -10 -11 -10 -11 -11 -11 -11 -11 -11 -11 -11 -11 -11 -11 -11 -11 -11 -11 -11 -11 -11 -12
-9 -9 -9 -9 -10 -10 -10 -10 -10 -10 -11 -10 -11 -11 -11 -10 -11 -10 -9 -9 -9 -9 -9 -10 -10 -11 -11 -11 -11 -11 -11 -11 -11 -11 -12 -12 -12 -12 -12 -12 -12 -12 -12 -12 -12 -12 -12 -13 -13
-8 -9 -10 -9 -10 -10 -11 -10 -9 -9 -10 -11 -11 -11 -12 -11 -11 -11 -10 -10 -9 -9 -9 -10 -11 -11 -11 -11 -12 -12 -11 -12 -12 -12 -12 -12 -12 -12 -12 -12 -12 -12 -12 -12 -13 -14 -13 -13 -13
-9 -10 -9 -9 -9 -9 -10 -9 -9 -9 -10 -11 -11 -11 -11 -12 -12 -11 -10 -10 -10 -11 -11 -11 -11 -12 -11 -12 -12 -11 -12 -12 -12 -12 -12 -12 -12 -12 -12 -12 -12 -13 -13 -14 -14 -13 -13 -13 -13
-9 -10 -9 -9 -9 -9 -9 -11 -10 -10 -11 -11 -11 -11 -11 -11 -11 -11 -11 -11 -11 -10 -11 -12 -12 -12 -12 -12 -12 -12 -12 -13 -13 -12 -12 -12 -12 -12 -13 -13 -13 -14 -14 -14 -14 -13 -14 -14 -14
-10 -10 -9 -10 -10 -10 -11 -10 -10 -11 -11 -11 -11 -11 -11 -11 -11 -11 -11 -11 -10 -11 -12 -12 -12 -12 -12 -12 -12 -12 -12 -12 -12 -12 -12 -12 -12 -13 -13 -14 -14 -14 -14 -14 -14 -14 -14 -14 -14
-11 -11 -11 -10 -10 -10 -12 -11 -11 -11 -12 -11 -12 -12 -11 -12 -11 -12 -11 -11 -11 -12 -13 -13 -13 -13 -12 -12 -12 -13 -12 -12 -12 -12 -12 -12 -13 -13 -14 -14 -14 -14 -14 -14 -14 -14 -14 -14 -13
-11 -11 -11 -11 -11 -11 -10 -11 -12 -11 -12 -11 -11 -12 -11 -12 -12 -12 -11 -11 -11 -12 -12 -13 -13 -12 -12 -12 -13 -12 -12 -12 -12 -13 -13 -13 -14 -14 -14 -14 -14 -14 -14 -15 -15 -14 -14 -14 -13
-13 -12 -12 -13 -11 -11 -11 -12 -12 -11 -11 -11 -12 -12 -12 -12 -11 -11 -11 -11 -11 -12 -12 -13 -12 -13 -13 -13 -12 -12 -12 -12 -13 -13 -13 -14 -14 -14 -14 -14 -14 -14 -14 -14 -14 -14 -13 -13 -14
-13 -12 -12 -12 -12 -12 -11 -11 -12 -12 -12 -12 -12 -12 -12 -12 -12 -11 -11 -12 -13 -13 -13 -12 -13 -13 -13 -12 -12 -12 -13 -13 -13 -13 -14 -14 -14 -14 -14 -14 -14 -14 -14 -14 -14 -14 -14 -14 -13
-13 -12 -13 -13 -13 -13 -13 -13 -12 -12 -13 -12 -12 -12 -12 -13 -11 -12 -12 -13 -13 -13 -12 -12 -13 -13 -12 -12 -12 -13 -13 -13 -13 -14 -14 -14 -14 -14 -14 -14 -14 -14 -15 -14 -14 -14 -13 -13 -13
Height
5922 5924 5925 5927 5930 5925 5925 5924 5926 5924 5928 5931 5931 5927 5924 5923 5922 5924 5925 5921 5922 5921 5922 5922 5922 5923 5924 5924 5925 5925 5925 5926 5925 5925 5925 5925 5925 5925 5925 5925 5924 5924 5924 5924 5923 5923 5922 5922 5922
5921 5923 5926 5927 5929 5926 5922 5922 5909 5914 5927 5932 5929 5928 5928 5926 5924 5921 5923 5920 5919 5920 5920 5920 5921 5922 5923 5923 5924 5924 5924 5925 5926 5926 5925 5925 5925 5925 5924 5924 5924 5924 5923 5922 5922 5921 5921 5920 5920
5920 5922 5925 5927 5928 5927 5924 5923 5921 5920 5921 5928 5929 5928 5927 5925 5923 5920 5919 5918 5919 5919 5920 5920 5921 5921 5922 5923 5923 5924 5924 5924 5925 5925 5924 5924 5924 5924 5923 5923 5922 5921 5921 5920 5920 5919 5918 5918 5917
5919 5922 5927 5927 5925 5921 5923 5927 5923 5921 5918 5925 5923 5925 5925 5923 5921 5920 5919 5919 5919 5920 5920 5921 5921 5921 5922 5922 5922 5923 5922 5923 5923 5923 5922 5922 5921 5921 5920 5919 5918 5918 5917 5916 5916 5915 5915 5914 5913
5918 5921 5925 5927 5921 5923 5926 5923 5918 5918 5917 5914 5924 5923 5922 5921 5919 5919 5918 5919 5918 5918 5919 5920 5920 5920 5920 5920 5920 5921 5921 5921 5921 5920 5919 5918 5917 5917 5915 5915 5914 5912 5911 5911 5910 5909 5908 5907 5907
5917 5921 5924 5924 5919 5924 5926 5920 5920 5917 5914 5913 5919 5922 5920 5919 5919 5918 5919 5919 5917 5917 5917 5917 5917 5917 5917 5918 5918 5918 5918 5917 5916 5916 5915 5913 5914 5912 5910 5910 5907 5906 5905 5904 5904 5902 5900 5901 5901
5915 5918 5923 5924 5921 5922 5922 5920 5919 5918 5918 5919 5921 5918 5919 5918 5919 5917 5918 5920 5915 5915 5914 5914 5914 5914 5915 5915 5915 5914 5913 5912 5911 5909 5909 5909 5907 5906 5906 5902 5901 5900 5898 5897 5895 5893 5893 5894 5892
5913 5916 5925 5928 5925 5926 5922 5921 5918 5917 5915 5920 5923 5920 5918 5916 5916 5916 5915 5916 5916 5912 5912 5912 5911 5911 5911 5910 5910 5909 5908 5907 5905 5905 5904 5903 5902 5901 5899 5897 5895 5892 5891 5889 5887 5886 5885 5883 5882
5912 5916 5923 5925 5923 5926 5925 5921 5918 5916 5916 5920 5922 5917 5914 5913 5913 5912 5911 5911 5913 5912 5909 5908 5909 5906 5905 5905 5904 5904 5903 5902 5901 5900 5899 5898 5896 5895 5893 5891 5888 5887 5885 5883 5880 5877 5876 5874 5872
5912 5916 5920 5919 5918 5924 5923 5920 5917 5912 5912 5913 5914 5915 5914 5913 5912 5909 5909 5910 5909 5904 5906 5907 5906 5906 5903 5901 5900 5899 5898 5896 5896 5895 5894 5892 5890 5888 5886 5884 5884 5882 5879 5876 5873 5871 5868 5866 5865
5912 5913 5915 5914 5919 5925 5923 5921 5914 5911 5910 5911 5915 5913 5912 5911 5908 5904 5904 5907 5908 5903 5901 5900 5900 5898 5899 5898 5897 5897 5897 5895 5893 5892 5889 5886 5883 5881 5879 5876 5873 5870 5868 5866 5864 5861 5858 5856 5855
5910 5911 5911 5913 5918 5919 5919 5919 5914 5913 5909 5908 5916 5914 5910 5908 5903 5902 5900 5901 5902 5900 5898 5896 5896 5896 5895 5895 5895 5893 5892 5892 5890 5886 5883 5880 5878 5875 5872 5868 5865 5862 5859 5856 5852 5849 5846 5844 5842
5907 5908 5909 5911 5913 5918 5914 5911 5907 5906 5906 5908 5912 5911 5909 5906 5903 5901 5899 5899 5900 5899 5897 5896 5895 5894 5893 5891 5890 5889 5887 5885 5884 5882 5880 5875 5871 5867 5863 5860 5856 5853 5850 5847 5844 5841 5837 5834 5831
5901 5905 5907 5910 5910 5915 5914 5911 5909 5906 5904 5907 5908 5907 5907 5904 5903 5901 5899 5898 5898 5898 5896 5895 5894 5892 5891 5890 5887 5885 5883 5880 5877 5874 5872 5869 5865 5862 5858 5854 5849 5844 5839 5835 5831 5826 5824 5821 5817
5898 5900 5902 5904 5907 5911 5911 5908 5909 5904 5902 5902 5905 5905 5903 5901 5900 5898 5897 5895 5895 5895 5895 5893 5892 5890 5888 5885 5883 5880 5877 5874 5871 5866 5862 5859 5855 5851 5847 5843 5839 5834 5830 5825 5820 5816 5811 5808 5804
5895 5898 5900 5902 5903 5904 5906 5908 5906 5900 5897 5898 5900 5902 5900 5898 5897 5896 5893 5892 5891 5890 5889 5890 5889 5887 5885 5882 5879 5875 5871 5868 5862 5857 5854 5849 5845 5842 5838 5832 5826 5822 5817 5811 5806 5802 5798 5794 5790
5893 5896 5897 5898 5898 5899 5902 5904 5903 5897 5895 5894 5896 5896 5895 5892 5892 5891 5890 5889 5888 5887 5884 5883 5883 5882 5879 5874 5871 5867 5864 5860 5856 5850 5845 5840 5834 5829 5822 5817 5812 5806 5801 5796 5791 5787 5782 5778 5774
5891 5893 5894 5895 5896 5895 5895 5898 5900 5895 5892 5892 5891 5891 5891 5889 5887 5886 5886 5884 5882 5881 5881 5877 5875 5872 5870 5866 5862 5860 5856 5850 5845 5840 5834 5827 5822 5815 5809 5803 5799 5793 5788 5783 5777 5771 5765 5760 5756
5886 5886 5889 5894 5898 5894 5892 5892 5892 5893 5888 5887 5886 5886 5886 5884 5881 5880 5880 5880 5879 5876 5873 5872 5870 5867 5864 5859 5856 5853 5848 5842 5836 5830 5823 5818 5812 5806 5799 5794 5788 5781 5774 5767 5761 5756 5750 5745 5737
5884 5883 5886 5889 5892 5890 5890 5888 5886 5890 5885 5882 5881 5880 5879 5878 5876 5876 5875 5875 5874 5872 5869 5867 5865 5861 5856 5853 5848 5843 5839 5833 5827 5821 5814 5808 5800 5793 5786 5779 5773 5766 5759 5752 5745 5738 5732 5726 5718
5880 5881 5882 5884 5889 5887 5887 5884 5884 5886 5883 5879 5876 5875 5875 5873 5872 5869 5868 5866 5865 5865 5864 5863 5859 5853 5848 5845 5840 5835 5829 5823 5816 5809 5801 5794 5787 5780 5773 5766 5760 5752 5744 5736 5728 5721 5714 5710 5704
5876 5879 5878 5881 5883 5882 5882 5879 5881 5882 5879 5878 5875 5872 5872 5871 5869 5866 5864 5859 5857 5858 5856 5855 5853 5848 5843 5836 5831 5825 5818 5812 5804 5798 5791 5784 5776 5769 5760 5752 5744 5735 5727 5719 5712 5705 5699 5694 5689
5873 5871 5872 5874 5874 5874 5878 5874 5873 5875 5874 5872 5872 5870 5869 5866 5864 5863 5858 5853 5853 5850 5849 5848 5844 5839 5834 5828 5821 5814 5806 5799 5792 5786 5779 5772 5764 5756 5746 5737 5728 5719 5711 5703 5697 5691 5684 5678 5673
5867 5865 5867 5867 5868 5870 5875 5873 5871 5871 5867 5864 5866 5867 5865 5860 5856 5858 5854 5852 5849 5846 5845 5838 5834 5829 5824 5818 5810 5804 5798 5791 5784 5777 5769 5761 5752 5743 5732 5722 5711 5703 5696 5689 5683 5676 5670 5664 5658
5861 5859 5862 5863 5863 5864 5867 5866 5867 5864 5862 5862 5861 5861 5854 5854 5853 5851 5849 5846 5844 5843 5839 5834 5829 5823 5816 5810 5803 5796 5789 5782 5774 5767 5759 5749 5739 5728 5717 5706 5697 5689 5681 5674 5667 5662 5657 5651 5646
5854 5855 5855 5857 5858 5859 5858 5860 5857 5857 5856 5859 5858 5855 5855 5847 5846 5844 5845 5843 5842 5839 5834 5830 5823 5816 5809 5802 5794 5787 5780 5772 5764 5756 5746 5735 5723 5712 5702 5692 5682 5670 5660 5655 5651 5648 5643 5639 5635
5851 5848 5852 5851 5852 5851 5854 5856 5855 5853 5853 5852 5854 5847 5847 5844 5840 5841 5841 5840 5839 5834 5828 5821 5814 5807 5800 5792 5785 5778 5770 5763 5754 5743 5732 5720 5709 5698 5687 5678 5669 5659 5649 5642 5639 5636 5633 5628 5622
5841 5849 5846 5844 5843 5843 5846 5849 5846 5846 5844 5843 5842 5838 5835 5836 5837 5834 5833 5832 5831 5826 5818 5810 5803 5797 5790 5784 5776 5769 5761 5752 5742 5731 5719 5709 5696 5684 5676 5669 5662 5653 5645 5638 5633 5628 5622 5617 5612
5837 5840 5841 5840 5838 5837 5839 5841 5842 5841 5841 5837 5832 5829 5824 5829 5828 5827 5825 5825 5821 5816 5808 5801 5795 5789 5783 5775 5768 5760 5750 5740 5730 5719 5709 5700 5689 5680 5672 5664 5656 5647 5639 5632 5626 5620 5614 5609 5604
5831 5830 5830 5829 5832 5832 5831 5833 5825 5825 5828 5830 5819 5820 5819 5818 5816 5819 5820 5820 5814 5807 5800 5794 5788 5781 5774 5767 5759 5749 5739 5730 5719 5709 5700 5690 5683 5675 5667 5659 5651 5644 5636 5628 5622 5614 5608 5603 5598
Wind_Speed
10 8 9 9 10 5 13 2 4 9 5 13 7 6 11 13 16 13 10 15 8 5 8 9 8 9 10 10 11 11 11 12 13 14 14 14 14 14 14 14 13 13 14 14 14 14 15 15 15
11 9 11 9 8 5 9 11 19 24 11 5 7 6 8 12 15 18 14 11 8 10 11 12 12 12 12 13 12 12 12 14 14 14 13 14 14 15 15 16 16 16 17 17 17 17 17 17 18
13 10 13 12 4 5 10 18 33 16 4 4 9 10 11 15 18 17 14 9 10 12 14 15 15 14 14 15 15 15 15 16 16 17 17 17 18 19 20 21 21 22 22 23 22 22 23 23 23
16 14 14 11 4 9 11 23 30 18 14 10 17 12 15 18 17 11 8 8 9 13 15 16 16 16 17 16 17 18 17 18 19 18 19 18 21 22 23 24 25 25 25 25 25 26 27 27 28
17 17 18 16 9 10 15 29 26 16 15 11 5 13 15 13 7 5 5 7 11 13 14 17 17 17 18 17 17 19 20 20 22 22 24 28 27 26 27 27 27 28 29 30 30 31 32 32 32
21 20 22 14 15 5 17 30 36 33 31 17 9 11 12 10 5 8 8 8 12 13 15 18 18 19 20 19 19 20 23 25 26 28 28 29 27 28 28 28 29 30 31 32 33 35 36 35 34
22 23 21 14 15 7 17 25 32 36 34 35 12 14 11 8 10 11 11 10 15 16 18 18 20 20 23 25 25 25 27 27 28 25 25 25 26 28 29 30 31 32 33 33 34 36 36 36 38
23 20 20 13 15 15 22 27 29 36 35 21 30 18 9 12 13 14 15 14 15 20 19 19 19 20 21 22 24 24 25 24 24 25 27 28 29 29 29 29 29 30 31 31 33 36 35 37 39
11 15 22 10 5 18 25 29 35 37 31 20 16 15 15 17 19 20 19 18 16 16 19 19 19 21 23 23 24 24 24 24 24 25 26 24 23 22 22 22 24 27 29 31 33 34 34 35 36
15 30 21 10 20 9 20 30 35 41 33 19 20 14 14 17 20 22 19 14 15 22 20 20 19 19 21 22 22 22 21 23 20 18 19 20 22 24 26 27 27 29 31 32 35 36 38 38 38
25 30 21 17 7 14 22 27 31 37 35 20 5 12 20 19 21 22 23 15 12 20 21 22 22 22 19 16 15 12 10 15 19 21 24 26 28 29 31 34 36 36 36 38 39 40 42 42 42
22 22 22 19 11 12 27 31 21 28 28 26 13 14 24 21 22 24 26 23 17 20 21 21 16 12 12 13 14 17 18 19 20 25 28 30 32 35 37 38 39 40 41 44 46 46 48 48 47
18 21 23 20 28 15 12 33 27 31 29 25 17 14 19 21 22 24 26 22 19 16 15 11 12 15 16 20 22 24 26 28 29 29 30 34 37 40 41 43 44 45 45 46 47 47 49 50 51
14 16 23 18 15 21 25 27 34 33 31 23 14 15 18 21 22 23 21 19 16 11 13 14 15 17 19 22 24 26 28 30 33 35 36 38 40 41 42 44 46 48 50 52 54 56 56 55 55
14 19 15 15 13 16 30 36 31 30 30 25 13 16 19 21 22 21 17 17 15 14 15 16 18 21 23 25 28 30 32 33 35 39 42 44 45 47 48 48 49 51 53 54 56 58 58 57 57
13 13 13 14 16 18 20 19 19 27 28 23 16 13 19 21 21 18 17 17 16 16 19 18 19 23 25 28 30 33 35 36 39 42 44 46 48 49 49 51 53 53 55 57 58 57 57 57 58
13 10 13 15 15 16 12 9 15 26 28 27 21 18 19 22 23 20 18 18 19 19 23 24 25 25 27 31 33 35 36 38 40 44 46 48 50 52 54 55 57 57 56 55 55 56 59 60 61
10 8 7 11 15 20 24 15 11 26 28 28 26 22 21 22 24 24 21 22 24 25 25 27 29 30 30 33 37 37 40 42 44 47 49 51 53 56 58 59 57 56 56 57 59 60 61 61 61
17 11 13 11 21 25 28 32 28 24 31 30 29 28 25 23 23 25 24 24 25 25 27 28 31 31 32 37 38 39 41 44 45 47 50 53 55 57 57 54 55 57 58 58 58 59 60 62 65
16 18 22 19 16 19 21 31 34 26 35 34 32 29 26 23 27 25 26 24 23 25 27 31 32 35 38 39 41 44 44 45 47 49 52 54 56 55 55 57 57 57 58 60 63 65 66 67 68
20 24 28 26 21 15 25 34 38 35 32 32 30 27 28 31 31 33 33 31 29 28 29 27 29 35 40 43 44 46 47 48 50 53 56 57 56 57 57 57 58 60 63 65 67 67 62 56 55
14 14 27 27 28 25 25 34 33 27 21 19 22 30 33 34 39 38 36 36 38 37 36 33 32 35 40 45 47 48 49 51 53 55 56 56 57 57 59 61 63 65 67 67 61 56 56 57 57
16 23 26 24 29 34 31 36 33 28 27 19 27 32 34 37 38 38 36 41 40 41 43 41 39 40 43 46 48 52 53 55 57 58 57 58 58 59 62 65 68 68 64 56 56 56 57 55 54
20 27 27 29 30 30 20 28 30 25 27 28 23 24 34 35 37 40 40 45 44 44 41 40 42 46 47 49 53 54 55 56 57 56 57 56 59 63 67 69 65 59 56 56 56 56 55 52 43
21 27 25 27 30 28 20 24 24 14 19 23 26 26 36 40 43 43 45 48 46 43 38 41 42 46 49 50 52 53 55 55 54 54 56 60 64 68 67 60 59 61 60 59 57 55 49 44 41
21 25 27 23 25 24 19 20 26 23 30 31 27 31 36 40 46 48 50 49 46 40 37 40 43 47 49 50 51 52 51 51 52 56 60 65 67 61 59 61 64 64 60 57 53 48 41 40 41
16 26 21 22 20 25 25 23 18 25 30 32 31 36 37 40 46 46 43 41 35 32 37 41 46 47 49 50 50 48 48 50 54 58 64 62 59 64 63 54 43 42 37 34 33 32 37 38 40
25 16 21 20 26 27 21 20 31 31 32 34 31 32 44 32 32 36 35 30 32 36 41 45 46 47 49 49 46 46 48 52 56 61 58 57 62 48 39 42 39 40 37 35 33 34 33 35 38
25 19 24 29 33 32 31 29 24 32 36 42 46 31 29 30 41 34 33 30 36 40 44 46 45 46 47 44 43 46 49 55 59 60 51 56 50 47 37 38 35 37 32 30 29 31 33 32 30
25 28 26 27 34 37 36 32 35 32 30 38 21 20 21 32 43 36 30 31 38 42 46 45 44 44 42 41 44 48 52 56 60 51 51 46 41 40 35 33 32 29 31 33 32 29 28 25 23
Wind_Direction
193 188 163 164 139 166 196 175 218 120 190 257 287 292 316 320 324 320 325 313 303 255 212 206 197 204 217 221 218 219 232 235 227 228 231 238 243 245 248 253 256 263 266 266 263 262 263 264 265
187 182 151 148 140 326 293 285 71 25 224 215 273 249 276 293 300 305 319 296 273 228 219 218 217 215 213 218 226 226 232 238 242 246 246 251 258 262 264 266 268 271 269 268 269 269 270 271 271
183 178 164 134 73 331 314 317 316 345 309 219 246 261 278 294 302 305 302 300 260 241 230 231 232 236 236 240 241 242 246 251 257 260 263 265 268 270 272 273 273 271 270 270 271 272 272 272 271
179 170 156 121 25 9 325 317 317 274 278 291 271 279 282 286 300 300 303 310 276 249 248 251 254 257 261 260 263 266 263 264 264 266 267 271 273 272 274 275 276 279 278 277 277 277 277 277 276
175 164 139 101 56 11 331 304 295 305 304 109 323 274 274 286 286 326 316 295 281 267 260 264 263 261 259 261 266 275 272 275 273 277 274 278 278 277 278 278 279 278 276 276 278 277 277 276 276
184 174 147 110 48 74 294 294 300 309 312 281 53 18 320 306 274 276 295 298 282 274 266 264 262 259 257 260 265 266 268 273 272 274 275 281 280 281 280 284 281 281 281 281 279 278 277 276 278
196 186 173 124 81 328 270 289 291 299 295 301 299 1 317 318 308 290 284 295 290 282 279 278 278 269 262 267 273 282 280 283 285 281 281 287 284 283 286 284 285 286 285 286 282 280 280 281 280
202 197 161 124 89 355 280 281 288 288 297 285 300 290 303 312 305 286 278 278 290 293 284 285 286 285 285 283 281 281 285 287 287 287 291 292 293 292 289 290 290 290 291 291 288 289 291 285 282
183 167 137 108 36 336 250 268 276 283 294 296 279 297 314 310 304 301 299 297 295 286 291 295 298 298 296 296 294 294 295 297 297 295 295 293 292 293 295 298 299 301 301 299 299 299 300 298 294
144 142 134 125 39 234 275 267 278 284 289 306 318 312 307 306 301 296 293 301 307 302 288 289 289 286 286 290 296 298 300 301 306 307 306 303 301 299 299 297 294 293 296 298 296 296 293 292 293
156 154 135 95 74 234 247 263 276 274 279 309 354 332 324 313 305 303 314 317 314 302 306 301 299 299 298 296 303 309 308 309 307 302 301 301 302 304 304 303 301 300 300 302 300 295 293 291 291
178 170 169 148 177 254 246 252 243 255 288 295 324 305 311 312 309 315 312 323 324 314 310 305 314 324 327 324 320 312 302 296 299 305 305 304 305 305 305 303 300 299 298 301 302 298 295 293 292
193 202 202 192 204 189 257 255 271 275 287 292 317 310 296 306 311 311 309 317 319 310 298 307 321 321 320 316 314 312 311 308 304 304 305 308 309 308 305 303 299 298 297 296 297 295 292 289 286
199 207 227 220 234 207 221 235 254 277 283 294 310 307 303 302 307 301 299 306 307 300 293 305 310 308 309 308 308 307 306 305 304 303 302 301 301 300 298 298 297 297 298 298 298 298 295 292 289
210 223 235 228 238 221 223 244 259 275 280 292 300 296 300 304 300 291 293 294 294 290 294 297 302 301 303 304 304 303 303 304 303 302 303 302 300 300 300 300 299 297 295 293 292 291 290 287 284
228 241 253 244 248 249 247 253 270 278 286 290 299 290 292 298 297 279 283 282 283 282 285 288 293 299 301 300 301 301 304 306 304 302 302 301 299 296 296 295 295 295 294 293 292 290 287 285 283
239 253 260 262 258 265 269 266 269 255 271 290 303 302 305 304 300 286 276 278 281 287 293 297 297 298 303 305 302 305 305 303 300 300 299 299 301 304 303 302 301 299 297 295 293 291 290 288 285
230 203 3 338 306 294 303 292 267 278 284 297 299 306 308 302 300 294 283 283 288 293 297 303 307 310 313 304 307 308 304 303 302 303 306 306 308 306 304 303 302 300 298 296 294 292 290 289 286
241 195 240 263 298 281 284 289 282 291 286 297 305 307 304 300 298 297 292 290 292 297 302 305 310 317 309 301 306 302 303 303 304 306 306 306 305 303 302 301 300 300 298 296 295 294 291 290 288
243 213 214 213 224 274 279 278 279 291 299 298 299 306 311 310 307 302 299 295 293 298 301 308 314 306 299 305 303 305 303 305 307 306 305 305 305 305 305 304 302 300 299 298 297 295 294 292 291
221 217 216 217 203 256 273 277 282 292 288 288 293 301 310 315 316 312 307 304 299 301 309 314 305 300 301 303 303 303 305 307 307 308 311 310 307 304 302 301 302 301 300 298 297 295 294 293 293
255 239 236 237 221 219 243 261 267 275 286 287 294 287 288 303 303 305 303 300 304 315 318 317 307 298 300 302 305 306 308 308 308 310 310 307 304 303 302 303 302 301 299 298 297 296 297 297 295
253 241 250 247 235 244 240 272 280 292 285 267 276 278 284 284 285 291 296 301 312 308 307 313 309 304 305 306 307 309 311 312 311 310 308 306 305 304 303 302 302 301 300 298 299 299 299 297 296
249 247 251 258 263 270 282 272 275 278 261 260 256 276 269 261 271 284 295 300 300 303 318 315 310 307 310 311 310 310 310 309 308 307 307 307 305 304 304 303 303 303 300 299 298 299 299 299 294
266 261 262 257 261 274 265 264 285 261 245 274 276 249 248 258 270 285 286 293 300 315 313 304 305 308 309 307 307 307 307 308 307 308 308 307 307 307 306 307 305 302 298 297 296 297 299 295 293
261 261 266 270 271 271 256 264 269 244 247 244 259 263 268 269 278 280 288 292 296 303 302 298 306 306 306 307 307 307 308 308 310 310 311 311 310 312 311 308 308 303 296 292 292 295 295 295 294
270 269 275 272 274 265 262 253 275 269 262 262 251 261 263 263 269 276 280 286 292 299 307 304 301 305 308 307 308 308 309 311 312 313 314 315 316 312 310 313 319 325 324 313 304 299 298 298 297
266 266 246 260 266 270 268 253 250 257 262 270 273 257 260 248 265 289 295 287 300 310 306 303 306 309 307 308 308 310 312 314 315 317 318 319 318 321 322 316 317 318 318 315 309 304 303 299 299
273 270 243 253 258 267 270 272 267 263 268 280 276 267 261 248 274 290 304 305 312 310 305 306 308 307 307 308 311 314 314 316 318 320 318 323 323 319 323 321 321 324 323 323 318 312 310 312 311
259 260 234 233 239 245 256 268 260 255 262 277 239 292 253 272 284 298 303 307 302 305 308 308 306 308 309 312 316 317 317 318 319 318 318 317 318 323 328 326 330 336 333 328 326 329 323 324 327